| time (UTC) | temp F | wind direction | speed knots | gust knots | rain 1hr in | rain 24hr in | rain mn in | humidity % | barometer mb |
| 20260505040048 | 35 | 241 | 2.6 | 5.2 | 0.00 | 0.40 | 0.33 | 94 | 1004.2 |
| 20260505035023 | 35 | 249 | 2.6 | 6.1 | 0.00 | 0.40 | 0.33 | 98 | 1004.1 |
| 20260505034119 | 35 | 246 | 2.6 | 3.5 | 0.00 | 0.40 | 0.33 | 99 | 1003.9 |
| 20260505033034 | 34 | 250 | 2.6 | 5.2 | 0.00 | 0.40 | 0.33 | 99 | 1003.9 |
| 20260505032030 | 33 | 224 | 0.9 | 3.5 | 0.00 | 0.40 | 0.33 | 99 | 1003.9 |
| 20260505031025 | 33 | 0.0 | 0.0 | 0.00 | 0.40 | 0.33 | 99 | 1003.7 | |
| 20260505030021 | 33 | 233 | 0.0 | 1.7 | 0.00 | 0.40 | 0.33 | 99 | 1003.7 |
| 20260505025016 | 32 | 175 | 0.0 | 0.9 | 0.00 | 0.40 | 0.33 | 99 | 1003.7 |
| 20260505024031 | 33 | 0.0 | 0.0 | 0.00 | 0.40 | 0.33 | 99 | 1003.6 | |
| 20260505023027 | 33 | 211 | 0.0 | 1.7 | 0.00 | 0.40 | 0.33 | 99 | 1003.6 |
| 20260505022022 | 33 | 209 | 0.0 | 0.9 | 0.00 | 0.40 | 0.33 | 99 | 1003.5 |
| 20260505021017 | 33 | 193 | 0.0 | 0.9 | 0.00 | 0.40 | 0.33 | 99 | 1003.5 |
| 20260505020032 | 32 | 0.0 | 0.0 | 0.00 | 0.40 | 0.33 | 99 | 1003.5 | |
| 20260505015027 | 33 | 0.0 | 0.0 | 0.00 | 0.40 | 0.33 | 99 | 1003.4 | |
| 20260505014023 | 33 | 207 | 0.0 | 0.9 | 0.00 | 0.40 | 0.33 | 99 | 1003.3 |
| 20260505013018 | 33 | 0.0 | 0.0 | 0.00 | 0.40 | 0.33 | 99 | 1003.1 | |
| 20260505012033 | 34 | 0.0 | 0.0 | 0.00 | 0.40 | 0.33 | 99 | 1003.2 | |
| 20260505011028 | 34 | 180 | 0.0 | 0.9 | 0.00 | 0.40 | 0.33 | 99 | 1002.9 |
| 20260505010024 | 35 | 0.0 | 0.0 | 0.00 | 0.40 | 0.33 | 99 | 1003.1 | |
| 20260505005019 | 35 | 0.0 | 0.0 | 0.01 | 0.40 | 0.33 | 99 | 1003.2 | |
| 20260505004034 | 35 | 218 | 0.9 | 1.7 | 0.02 | 0.40 | 0.33 | 99 | 1003.2 |
| 20260505003029 | 34 | 208 | 0.0 | 0.9 | 0.03 | 0.40 | 0.33 | 99 | 1003.0 |
| 20260505002044 | 34 | 0.0 | 0.0 | 0.05 | 0.40 | 0.33 | 99 | 1002.9 | |
| 20260505001020 | 35 | 169 | 0.0 | 0.9 | 0.06 | 0.40 | 0.33 | 99 | 1002.8 |
| 20260505000055 | 34 | 226 | 0.9 | 1.7 | 0.10 | 0.40 | 0.33 | 99 | 1003.1 |
| 20260504235031 | 34 | 233 | 0.9 | 1.7 | 0.13 | 0.39 | 0.32 | 99 | 1003.0 |
| 20260504234027 | 34 | 230 | 0.9 | 1.7 | 0.15 | 0.38 | 0.31 | 99 | 1002.9 |
| 20260504233021 | 34 | 224 | 1.7 | 2.6 | 0.19 | 0.37 | 0.30 | 99 | 1003.1 |
| 20260504232017 | 34 | 233 | 1.7 | 5.2 | 0.20 | 0.35 | 0.28 | 98 | 1003.1 |
| 20260504231032 | 35 | 255 | 1.7 | 5.2 | 0.22 | 0.34 | 0.27 | 98 | 1003.0 |
| 20260504230028 | 36 | 246 | 1.7 | 7.0 | 0.23 | 0.30 | 0.23 | 97 | 1002.8 |
| 20260504225023 | 36 | 226 | 1.7 | 2.6 | 0.21 | 0.26 | 0.19 | 97 | 1002.7 |
| 20260504224019 | 37 | 217 | 0.9 | 3.5 | 0.19 | 0.23 | 0.16 | 97 | 1002.5 |
| 20260504223114 | 38 | 223 | 1.7 | 5.2 | 0.15 | 0.18 | 0.11 | 96 | 1002.5 |
| 20260504222029 | 39 | 265 | 1.7 | 7.0 | 0.14 | 0.15 | 0.08 | 96 | 1002.6 |
| 20260504221025 | 40 | 230 | 1.7 | 7.0 | 0.11 | 0.12 | 0.05 | 95 | 1002.3 |
| 20260504220020 | 40 | 224 | 1.7 | 3.5 | 0.06 | 0.07 | 0.07 | 95 | 1002.1 |
| 20260504215035 | 41 | 174 | 1.7 | 6.1 | 0.04 | 0.05 | 0.05 | 94 | 1002.0 |
| 20260504214031 | 42 | 207 | 0.9 | 1.7 | 0.03 | 0.04 | 0.04 | 93 | 1002.0 |
| 20260504213025 | 43 | 241 | 1.7 | 6.1 | 0.02 | 0.03 | 0.03 | 90 | 1001.9 |
| 20260504212020 | 44 | 242 | 0.9 | 3.5 | 0.00 | 0.01 | 0.01 | 89 | 1001.8 |
| 20260504211016 | 43 | 223 | 0.9 | 1.7 | 0.00 | 0.01 | 0.01 | 90 | 1001.7 |
| 20260504210051 | 43 | 170 | 0.0 | 0.9 | 0.00 | 0.01 | 0.01 | 91 | 1001.4 |
| 20260504205047 | 44 | 163 | 0.9 | 3.5 | 0.00 | 0.01 | 0.01 | 88 | 1001.5 |
| 20260504204022 | 44 | 227 | 1.7 | 3.5 | 0.00 | 0.01 | 0.01 | 88 | 1001.7 |
| 20260504203018 | 44 | 64 | 1.7 | 3.5 | 0.00 | 0.01 | 0.01 | 88 | 1001.2 |
| 20260504202034 | 44 | 24 | 1.7 | 3.5 | 0.00 | 0.01 | 0.01 | 88 | 1001.3 |
| 20260504201029 | 44 | 164 | 1.7 | 2.6 | 0.00 | 0.01 | 0.01 | 87 | 1001.5 |
| 20260504200024 | 44 | 0.0 | 0.0 | 0.00 | 0.01 | 0.01 | 87 | 1001.7 | |
| 20260504195020 | 44 | 154 | 0.9 | 1.7 | 0.00 | 0.01 | 0.01 | 86 | 1001.6 |
| 20260504194015 | 44 | 170 | 0.9 | 2.6 | 0.00 | 0.01 | 0.01 | 85 | 1001.7 |
| 20260504193031 | 45 | 138 | 1.7 | 2.6 | 0.00 | 0.01 | 0.01 | 84 | 1001.8 |
| 20260504192025 | 45 | 116 | 0.9 | 2.6 | 0.00 | 0.01 | 0.01 | 84 | 1002.0 |
| 20260504191022 | 45 | 162 | 0.9 | 1.7 | 0.00 | 0.01 | 0.01 | 82 | 1001.9 |
| 20260504190016 | 46 | 116 | 1.7 | 3.5 | 0.00 | 0.01 | 0.01 | 81 | 1002.0 |
| 20260504185032 | 46 | 150 | 0.9 | 3.5 | 0.00 | 0.01 | 0.01 | 81 | 1001.6 |
| 20260504184027 | 47 | 147 | 0.9 | 2.6 | 0.00 | 0.01 | 0.01 | 80 | 1001.4 |
| 20260504183047 | 47 | 172 | 0.9 | 1.7 | 0.00 | 0.01 | 0.01 | 80 | 1001.1 |
| 20260504182017 | 48 | 128 | 1.7 | 5.2 | 0.00 | 0.01 | 0.01 | 79 | 1001.2 |
| 20260504181032 | 49 | 135 | 1.7 | 6.1 | 0.00 | 0.01 | 0.01 | 76 | 1000.9 |
| 20260504180028 | 50 | 148 | 0.9 | 2.6 | 0.00 | 0.01 | 0.01 | 72 | 1000.8 |
| 20260504175023 | 52 | 148 | 0.9 | 3.5 | 0.00 | 0.01 | 0.01 | 66 | 1000.6 |
| 20260504174018 | 54 | 82 | 1.7 | 3.5 | 0.00 | 0.01 | 0.01 | 58 | 1000.6 |
| 20260504173033 | 56 | 161 | 1.7 | 6.1 | 0.00 | 0.01 | 0.01 | 47 | 1000.6 |
| 20260504172029 | 58 | 248 | 3.5 | 7.0 | 0.00 | 0.01 | 0.01 | 32 | 1000.3 |
| 20260504171024 | 57 | 245 | 2.6 | 7.0 | 0.00 | 0.01 | 0.01 | 33 | 1000.3 |
| 20260504151025 | 57 | 246 | 3.5 | 6.1 | 0.00 | 0.01 | 0.01 | 56 | 1000.2 |
| 20260504140536 | 51 | 213 | 2.6 | 5.2 | 0.01 | 0.01 | 0.01 | 76 | 1000.6 |
| 20260504130526 | 57 | 263 | 6.1 | 9.6 | 0.00 | 0.00 | 0.00 | 58 | 1000.3 |
| 20260504110524 | 53 | 254 | 7.8 | 14.8 | 0.00 | 0.00 | 0.00 | 69 | 1001.0 |
| 20260504100521 | 53 | 257 | 7.0 | 11.3 | 0.00 | 0.00 | 0.00 | 71 | 1001.3 |
| 20260504081526 | 50 | 202 | 2.6 | 3.5 | 0.00 | 0.00 | 0.00 | 75 | 1002.3 |
| 20260504080520 | 52 | 220 | 3.5 | 7.8 | 0.00 | 0.00 | 0.00 | 72 | 1002.4 |
| 20260504050516 | 44 | 178 | 0.9 | 2.6 | 0.00 | 0.00 | 0.00 | 93 | 1004.1 |
| 20260504045552 | 43 | 196 | 0.9 | 1.7 | 0.00 | 0.00 | 0.00 | 94 | 1004.2 |
| 20260504044528 | 42 | 193 | 0.9 | 1.7 | 0.00 | 0.00 | 0.00 | 96 | 1004.3 |
| 20260504043522 | 42 | 200 | 0.9 | 1.7 | 0.00 | 0.00 | 0.00 | 96 | 1004.5 |
| 20260504042518 | 41 | 197 | 0.9 | 1.7 | 0.00 | 0.00 | 0.00 | 97 | 1004.6 |
| 20260504041534 | 41 | 192 | 0.0 | 0.9 | 0.00 | 0.00 | 0.00 | 97 | 1004.6 |
| 20260504040549 | 41 | 0.0 | 0.0 | 0.00 | 0.00 | 0.00 | 97 | 1004.7 |